Project,Study,Ord_Occ,Event_Num,Cast_ID,Date_Time_UTC,Date_Time_PST,Lat_Dec,Lon_Dec,Sta_ID,Line,Sta,Depth,Pressure,PrQ,Temp1,Temp1Q,Temp2,Temp2Q,TempAve,Salt1,Salt1Q,Salt1_Corr,Salt2,Salt2Q,Salt2_Corr,SaltAve_Corr,Ox1,Ox1Q,Ox1_CruiseCorr,Ox1_StaCorr,Ox2,Ox2Q,Ox2_CruiseCorr,Ox2_StaCorr,OxAve_StaCorr,Ox1uM,Ox1uM_CruiseCorr,Ox1uM_StaCorr,Ox2uM,Ox2uM_CruiseCorr,Ox2uM_StaCorr,OxAveuM_StaCorr,FluorV,FluorQ,EstChl_CruiseCorr,EstChl_StaCorr,ISUSV,ISUSQ,EstNO3_CruiseCorr,EstNO3_StaCorr,SigThetaTS1,SigThetaTS1Q,SigThetaTS2,SigThetaTS2Q,BAT,XMiss,TransQ,pH,pHQ,SPAR,SPARQ,PAR,PARQ,PoT1,PoT2,DynHt,SVA,OxSat1,OxSat2,BTL_Depth,BTL_Temp,SaltB,OxB,OxBuM,Chl-a,Phaeo,NO3,NO2,NH4,PO4,SIL
CalCOFI,2101RL,006,,2101_006u,16-Jan-2021 23:09:37,16-Jan-2021 15:09:37,32.68110,-117.86498,093.3 035.0,093.3,035.0,519.000,523.331,,6.2076,,6.2090,,6.2083,34.3137,,34.3195,34.3060,,34.3080,34.3138,0.2828,,0.2959,0.2956,0.2787,,0.2940,0.2919,0.2938,12.297,13.1327,12.9346,12.120,14.1269,12.7761,12.8554,0.0316,,,, ,, , ,26.9898,,26.9836,,0.6782,84.4047,,,,1.8470E+03,,1.0000E-12,,6.1612,6.1626,0.8851,113.347,4.094,4.035,,,,,,,,,,,,
CalCOFI,2101RL,006,,2101_006u,16-Jan-2021 23:09:42,16-Jan-2021 15:09:42,32.68110,-117.86498,093.3 035.0,093.3,035.0,518.000,522.323,,6.2084,,6.2089,,6.2087,34.3132,,34.3190,34.3059,,34.3079,34.3135,0.2854,,0.2986,0.2983,0.2904,,0.3064,0.3042,0.3013,12.412,13.2531,13.0546,12.627,14.2547,13.3101,13.1824,0.0324,,,, ,, , ,26.9893,,26.9835,,0.6776,84.4170,,,,1.8328E+03,,1.0000E-12,,6.1620,6.1625,0.8851,113.386,4.133,4.204,,,,,,,,,,,,
CalCOFI,2101RL,006,,2101_006u,16-Jan-2021 23:09:45,16-Jan-2021 15:09:45,32.68110,-117.86498,093.3 035.0,093.3,035.0,517.000,521.313,,6.2082,,6.2089,,6.2086,34.3132,,34.3190,34.3059,,34.3079,34.3135,0.2853,,0.2985,0.2982,0.2877,,0.3036,0.3014,0.2998,12.407,13.2478,13.0494,12.511,14.2492,13.1880,13.1187,0.0316,,,, ,, , ,26.9893,,26.9834,,0.6775,84.4194,,,,1.8316E+03,,1.0000E-12,,6.1619,6.1626,0.8851,113.367,4.131,4.165,517,,34.3111,0.304,13.23,,,,,,,
CalCOFI,2101RL,006,,2101_006u,16-Jan-2021 23:09:46,16-Jan-2021 15:09:46,32.68110,-117.86498,093.3 035.0,093.3,035.0,516.000,520.303,,6.2084,,6.2085,,6.2085,34.3132,,34.3190,34.3060,,34.3080,34.3135,0.2850,,0.2982,0.2979,0.2900,,0.3060,0.3038,0.3009,12.395,13.2353,13.0369,12.611,14.2358,13.2933,13.1651,0.0324,,,, ,, , ,26.9893,,26.9836,,0.6775,84.4193,,,,1.8318E+03,,1.0000E-12,,6.1622,6.1623,0.8851,113.354,4.127,4.198,,,,,,,,,,,,
CalCOFI,2101RL,006,,2101_006u,16-Jan-2021 23:09:48,16-Jan-2021 15:09:48,32.68110,-117.86498,093.3 035.0,093.3,035.0,515.000,519.294,,6.2093,,6.2100,,6.2097,34.3131,,34.3189,34.3059,,34.3079,34.3134,0.2850,,0.2982,0.2979,0.2940,,0.3103,0.3080,0.3030,12.394,13.2342,13.0358,12.783,14.2347,13.4744,13.2551,0.0317,,,, ,, , ,26.9890,,26.9832,,0.6777,84.4155,,,,1.8388E+03,,1.0000E-12,,6.1632,6.1639,0.8851,113.366,4.127,4.256,,,,,,,,,,,,
CalCOFI,2101RL,006,,2101_006u,16-Jan-2021 23:09:50,16-Jan-2021 15:09:50,32.68110,-117.86498,093.3 035.0,093.3,035.0,514.000,518.284,,6.2112,,6.2118,,6.2115,34.3130,,34.3188,34.3058,,34.3078,34.3133,0.2850,,0.2982,0.2979,0.2924,,0.3086,0.3063,0.3021,12.391,13.2311,13.0327,12.714,14.2314,13.4018,13.2173,0.0321,,,, ,, , ,26.9887,,26.9829,,0.6778,84.4127,,,,1.8378E+03,,1.0000E-12,,6.1652,6.1658,0.8851,113.381,4.126,4.233,,,,,,,,,,,,
CalCOFI,2101RL,006,,2101_006u,16-Jan-2021 23:09:51,16-Jan-2021 15:09:51,32.68110,-117.86498,093.3 035.0,093.3,035.0,513.000,517.274,,6.2151,,6.2160,,6.2156,34.3126,,34.3184,34.3056,,34.3076,34.3130,0.2849,,0.2981,0.2978,0.2976,,0.3141,0.3118,0.3048,12.389,13.2290,13.0306,12.940,14.2292,13.6398,13.3352,0.0328,,,, ,, , ,26.9879,,26.9822,,0.6780,84.4096,,,,1.8366E+03,,1.0000E-12,,6.1691,6.1701,0.8851,113.451,4.125,4.309,,,,,,,,,,,,
CalCOFI,2101RL,006,,2101_006u,16-Jan-2021 23:09:51,16-Jan-2021 15:09:51,32.68110,-117.86498,093.3 035.0,093.3,035.0,512.000,516.265,,6.2202,,6.2211,,6.2207,34.3124,,34.3182,34.3051,,34.3071,34.3127,0.2848,,0.2980,0.2977,0.2970,,0.3134,0.3112,0.3045,12.385,13.2248,13.0264,12.919,14.2247,13.6177,13.3221,0.0327,,,, ,, , ,26.9871,,26.9812,,0.6779,84.4111,,,,1.8381E+03,,1.0000E-12,,6.1743,6.1752,0.8851,113.516,4.125,4.302,,,,,,,,,,,,
CalCOFI,2101RL,006,,2101_006u,16-Jan-2021 23:09:52,16-Jan-2021 15:09:52,32.68110,-117.86498,093.3 035.0,093.3,035.0,511.000,515.255,,6.2232,,6.2239,,6.2236,34.3123,,34.3181,34.3051,,34.3071,34.3126,0.2849,,0.2981,0.2978,0.2940,,0.3103,0.3080,0.3029,12.390,13.2301,13.0317,12.785,14.2303,13.4766,13.2542,0.0322,,,, ,, , ,26.9866,,26.9808,,0.6785,84.3981,,,,1.8354E+03,,1.0000E-12,,6.1774,6.1781,0.8851,113.557,4.126,4.258,,,,,,,,,,,,
CalCOFI,2101RL,006,,2101_006u,16-Jan-2021 23:09:53,16-Jan-2021 15:09:53,32.68110,-117.86498,093.3 035.0,093.3,035.0,510.000,514.246,,6.2249,,6.2257,,6.2253,34.3121,,34.3179,34.3051,,34.3071,34.3125,0.2868,,0.3001,0.2998,0.2938,,0.3100,0.3078,0.3038,12.471,13.3148,13.1162,12.777,14.3204,13.4681,13.2922,0.0317,,,, ,, , ,26.9862,,26.9806,,0.6783,84.4032,,,,1.8337E+03,,1.0000E-12,,6.1792,6.1800,0.8851,113.576,4.154,4.255,,,,,,,,,,,,
CalCOFI,2101RL,006,,2101_006u,16-Jan-2021 23:09:54,16-Jan-2021 15:09:54,32.68110,-117.86498,093.3 035.0,093.3,035.0,509.000,513.236,,6.2281,,6.2302,,6.2292,34.3120,,34.3178,34.3047,,34.3067,34.3123,0.2904,,0.3038,0.3035,0.2937,,0.3099,0.3077,0.3056,12.630,13.4813,13.2821,12.774,14.4972,13.4650,13.3736,0.0321,,,, ,, , ,26.9857,,26.9797,,0.6784,84.3990,,,,1.8305E+03,,1.0000E-12,,6.1825,6.1845,0.8851,113.617,4.207,4.255,,,,,,,,,,,,
CalCOFI,2101RL,006,,2101_006u,16-Jan-2021 23:09:55,16-Jan-2021 15:09:55,32.68110,-117.86498,093.3 035.0,093.3,035.0,508.000,512.227,,6.2332,,6.2350,,6.2341,34.3118,,34.3176,34.3044,,34.3064,34.3120,0.2899,,0.3033,0.3030,0.2937,,0.3099,0.3077,0.3054,12.605,13.4551,13.2560,12.770,14.4694,13.4608,13.3584,0.0321,,,, ,, , ,26.9849,,26.9788,,0.6783,84.4016,,,,1.8289E+03,,1.0000E-12,,6.1876,6.1895,0.8851,113.685,4.199,4.254,,,,,,,,,,,,
CalCOFI,2101RL,006,,2101_006u,16-Jan-2021 23:09:56,16-Jan-2021 15:09:56,32.68110,-117.86498,093.3 035.0,093.3,035.0,507.000,511.217,,6.2377,,6.2384,,6.2381,34.3114,,34.3172,34.3041,,34.3061,34.3117,0.2894,,0.3028,0.3025,0.2956,,0.3120,0.3097,0.3061,12.586,13.4352,13.2362,12.855,14.4482,13.5503,13.3933,0.0320,,,, ,, , ,26.9840,,26.9781,,0.6788,84.3914,,,,1.8312E+03,,1.0000E-12,,6.1922,6.1929,0.8851,113.756,4.193,4.283,,,,,,,,,,,,
CalCOFI,2101RL,006,,2101_006u,16-Jan-2021 23:09:57,16-Jan-2021 15:09:57,32.68111,-117.86498,093.3 035.0,093.3,035.0,506.000,510.207,,6.2400,,6.2422,,6.2411,34.3114,,34.3172,34.3039,,34.3059,34.3116,0.2901,,0.3035,0.3032,0.2969,,0.3133,0.3111,0.3072,12.614,13.4645,13.2654,12.910,14.4794,13.6082,13.4368,0.0326,,,, ,, , ,26.9837,,26.9775,,0.6786,84.3966,,,,1.8346E+03,,1.0000E-12,,6.1946,6.1968,0.8851,113.775,4.203,4.301,,,,,,,,,,,,
CalCOFI,2101RL,006,,2101_006u,16-Jan-2021 23:09:58,16-Jan-2021 15:09:58,32.68112,-117.86498,093.3 035.0,093.3,035.0,505.000,509.198,,6.2484,,6.2501,,6.2493,34.3109,,34.3167,34.3036,,34.3056,34.3112,0.2930,,0.3066,0.3062,0.3019,,0.3186,0.3163,0.3113,12.740,13.5964,13.3969,13.127,14.6195,13.8368,13.6169,0.0319,,,, ,, , ,26.9822,,26.9762,,0.6784,84.3999,,,,1.8377E+03,,1.0000E-12,,6.2031,6.2048,0.8851,113.910,4.245,4.375,,,,,,,,,,,,
CalCOFI,2101RL,006,,2101_006u,16-Jan-2021 23:09:59,16-Jan-2021 15:09:59,32.68112,-117.86498,093.3 035.0,093.3,035.0,504.000,508.188,,6.2544,,6.2553,,6.2549,34.3107,,34.3165,34.3033,,34.3053,34.3109,0.2945,,0.3081,0.3078,0.3015,,0.3182,0.3159,0.3119,12.808,13.6676,13.4679,13.110,14.6951,13.8189,13.6434,0.0327,,,, ,, , ,26.9812,,26.9753,,0.6786,84.3965,,,,1.8364E+03,,1.0000E-12,,6.2091,6.2101,0.8851,113.996,4.269,4.369,,,,,,,,,,,,
CalCOFI,2101RL,006,,2101_006u,16-Jan-2021 23:10:01,16-Jan-2021 15:10:01,32.68112,-117.86498,093.3 035.0,093.3,035.0,503.000,507.179,,6.2644,,6.2611,,6.2628,34.3101,,34.3159,34.3030,,34.3050,34.3105,0.2986,,0.3124,0.3121,0.3027,,0.3195,0.3172,0.3147,12.984,13.8519,13.6515,13.162,14.8908,13.8736,13.7626,0.0330,,,, ,, , ,26.9795,,26.9743,,0.6784,84.3990,,,,1.8350E+03,,1.0000E-12,,6.2192,6.2159,0.8851,114.154,4.329,4.387,,,,,,,,,,,,
CalCOFI,2101RL,006,,2101_006u,16-Jan-2021 23:10:02,16-Jan-2021 15:10:02,32.68112,-117.86498,093.3 035.0,093.3,035.0,502.000,506.169,,6.2809,,6.2697,,6.2753,34.3089,,34.3147,34.3022,,34.3042,34.3095,0.2998,,0.3137,0.3133,0.3084,,0.3256,0.3232,0.3183,13.038,13.9084,13.7079,13.412,14.9509,14.1369,13.9224,0.0320,,,, ,, , ,26.9764,,26.9726,,0.6781,84.4056,,,,1.8373E+03,,1.0000E-12,,6.2357,6.2246,0.8851,114.453,4.348,4.472,,,,,,,,,,,,
CalCOFI,2101RL,006,,2101_006u,16-Jan-2021 23:10:03,16-Jan-2021 15:10:03,32.68112,-117.86498,093.3 035.0,093.3,035.0,501.000,505.160,,6.2892,,6.2862,,6.2877,34.3081,,34.3139,34.3014,,34.3034,34.3087,0.3035,,0.3175,0.3172,0.3073,,0.3244,0.3220,0.3196,13.198,14.0759,13.8749,13.363,15.1288,14.0853,13.9801,0.0319,,,, ,, , ,26.9747,,26.9698,,0.6786,84.3957,,,,1.8440E+03,,1.0000E-12,,6.2441,6.2411,0.8851,114.609,4.402,4.457,,,,,,,,,,,,
CalCOFI,2101RL,006,,2101_006u,16-Jan-2021 23:10:04,16-Jan-2021 15:10:04,32.68112,-117.86498,093.3 035.0,093.3,035.0,500.000,504.150,,6.2931,,6.2934,,6.2933,34.3081,,34.3139,34.3008,,34.3028,34.3084,0.3010,,0.3149,0.3146,0.3030,,0.3198,0.3175,0.3161,13.092,13.9649,13.7643,13.178,15.0109,13.8905,13.8274,0.0323,,,, ,, , ,26.9742,,26.9683,,0.6786,84.3957,,,,1.8407E+03,,1.0000E-12,,6.2481,6.2484,0.8851,114.648,4.367,4.396,,,,,,,,,,,,
CalCOFI,2101RL,006,,2101_006u,16-Jan-2021 23:10:04,16-Jan-2021 15:10:04,32.68112,-117.86498,093.3 035.0,093.3,035.0,499.000,503.141,,6.3000,,6.3006,,6.3003,34.3077,,34.3135,34.3005,,34.3025,34.3080,0.3046,,0.3187,0.3183,0.3061,,0.3231,0.3207,0.3195,13.246,14.1261,13.9250,13.312,15.1822,14.0316,13.9783,0.0322,,,, ,, , ,26.9730,,26.9672,,0.6786,84.3957,,,,1.8336E+03,,1.0000E-12,,6.2550,6.2556,0.8851,114.754,4.420,4.441,,,,,,,,,,,,
CalCOFI,2101RL,006,,2101_006u,16-Jan-2021 23:10:05,16-Jan-2021 15:10:05,32.68112,-117.86498,093.3 035.0,093.3,035.0,498.000,502.131,,6.3120,,6.3126,,6.3123,34.3069,,34.3127,34.2995,,34.3015,34.3071,0.3070,,0.3212,0.3208,0.3137,,0.3312,0.3287,0.3248,13.349,14.2339,14.0325,13.641,15.2967,14.3781,14.2053,0.0322,,,, ,, , ,26.9708,,26.9648,,0.6786,84.3957,,,,1.8317E+03,,1.0000E-12,,6.2671,6.2677,0.8851,114.958,4.455,4.552,,,,,,,,,,,,
CalCOFI,2101RL,006,,2101_006u,16-Jan-2021 23:10:06,16-Jan-2021 15:10:06,32.68112,-117.86498,093.3 035.0,093.3,035.0,497.000,501.122,,6.3276,,6.3254,,6.3265,34.3064,,34.3122,34.2991,,34.3011,34.3067,0.3078,,0.3220,0.3217,0.3142,,0.3317,0.3293,0.3255,13.386,14.2727,14.0711,13.666,15.3379,14.4045,14.2378,0.0313,,,, ,, , ,26.9683,,26.9629,,0.6786,84.3957,,,,1.8291E+03,,1.0000E-12,,6.2827,6.2805,0.8851,115.193,4.469,4.562,,,,,,,,,,,,
CalCOFI,2101RL,006,,2101_006u,16-Jan-2021 23:10:07,16-Jan-2021 15:10:07,32.68112,-117.86498,093.3 035.0,093.3,035.0,496.000,500.112,,6.3405,,6.3442,,6.3424,34.3054,,34.3112,34.2982,,34.3002,34.3057,0.3100,,0.3243,0.3240,0.3139,,0.3314,0.3289,0.3265,13.479,14.3700,14.1681,13.652,15.4413,14.3897,14.2789,0.0326,,,, ,, , ,26.9659,,26.9597,,0.6786,84.3957,,,,1.8280E+03,,1.0000E-12,,6.2956,6.2994,0.8851,115.424,4.501,4.559,,,,,,,,,,,,
CalCOFI,2101RL,006,,2101_006u,16-Jan-2021 23:10:08,16-Jan-2021 15:10:08,32.68112,-117.86498,093.3 035.0,093.3,035.0,495.000,499.103,,6.3483,,6.3494,,6.3489,34.3054,,34.3112,34.2981,,34.3001,34.3057,0.3102,,0.3246,0.3242,0.3206,,0.3385,0.3360,0.3301,13.488,14.3794,14.1775,13.943,15.4513,14.6962,14.4369,0.0323,,,, ,, , ,26.9648,,26.9589,,0.6786,84.3957,,,,1.8323E+03,,1.0000E-12,,6.3036,6.3046,0.8851,115.516,4.505,4.657,,,,,,,,,,,,
CalCOFI,2101RL,006,,2101_006u,16-Jan-2021 23:10:10,16-Jan-2021 15:10:10,32.68112,-117.86498,093.3 035.0,093.3,035.0,494.000,498.093,,6.3601,,6.3568,,6.3585,34.3047,,34.3105,34.2977,,34.2997,34.3051,0.3130,,0.3275,0.3271,0.3132,,0.3306,0.3282,0.3277,13.610,14.5071,14.3048,13.619,15.5869,14.3549,14.3299,0.0323,,,, ,, , ,26.9627,,26.9576,,0.6786,84.3957,,,,1.8327E+03,,1.0000E-12,,6.3154,6.3120,0.8851,115.713,4.547,4.550,,,,,,,,,,,,
CalCOFI,2101RL,006,,2101_006u,16-Jan-2021 23:10:11,16-Jan-2021 15:10:11,32.68114,-117.86498,093.3 035.0,093.3,035.0,493.000,497.084,,6.3694,,6.3695,,6.3695,34.3047,,34.3105,34.2970,,34.2990,34.3048,0.3166,,0.3313,0.3308,0.3195,,0.3373,0.3348,0.3328,13.769,14.6736,14.4708,13.894,15.7638,14.6446,14.5577,0.0318,,,, ,, , ,26.9615,,26.9555,,0.6779,84.4104,,,,1.8327E+03,,1.0000E-12,,6.3247,6.3249,0.8851,115.822,4.601,4.643,,,,,,,,,,,,
CalCOFI,2101RL,006,,2101_006u,16-Jan-2021 23:10:12,16-Jan-2021 15:10:12,32.68114,-117.86498,093.3 035.0,093.3,035.0,492.000,496.074,,6.3831,,6.3794,,6.3813,34.3039,,34.3097,34.2970,,34.2990,34.3044,0.3143,,0.3288,0.3284,0.3212,,0.3391,0.3366,0.3325,13.668,14.5679,14.3654,13.969,15.6514,14.7236,14.5445,0.0315,,,, ,, , ,26.9591,,26.9542,,0.6778,84.4137,,,,1.8373E+03,,1.0000E-12,,6.3385,6.3348,0.8851,116.054,4.569,4.669,,,,,,,,,,,,
CalCOFI,2101RL,006,,2101_006u,16-Jan-2021 23:10:13,16-Jan-2021 15:10:13,32.68114,-117.86498,093.3 035.0,093.3,035.0,491.000,495.065,,6.3886,,6.3886,,6.3886,34.3040,,34.3098,34.2966,,34.2986,34.3042,0.3178,,0.3325,0.3321,0.3207,,0.3386,0.3361,0.3341,13.819,14.7259,14.5229,13.946,15.8194,14.6994,14.6112,0.0322,,,, ,, , ,26.9584,,26.9526,,0.6775,84.4193,,,,1.8344E+03,,1.0000E-12,,6.3440,6.3441,0.8851,116.108,4.620,4.662,,,,,,,,,,,,
CalCOFI,2101RL,006,,2101_006u,16-Jan-2021 23:10:14,16-Jan-2021 15:10:14,32.68114,-117.86498,093.3 035.0,093.3,035.0,490.000,494.055,,6.4053,,6.4002,,6.4028,34.3032,,34.3090,34.2964,,34.2984,34.3037,0.3215,,0.3364,0.3359,0.3262,,0.3445,0.3419,0.3389,13.982,14.8966,14.6930,14.185,16.0006,14.9511,14.8221,0.0327,,,, ,, , ,26.9557,,26.9509,,0.6775,84.4193,,,,1.8303E+03,,1.0000E-12,,6.3608,6.3557,0.8851,116.371,4.676,4.743,,,,,,,,,,,,
CalCOFI,2101RL,006,,2101_006u,16-Jan-2021 23:10:15,16-Jan-2021 15:10:15,32.68114,-117.86498,093.3 035.0,093.3,035.0,489.000,493.046,,6.4097,,6.4077,,6.4087,34.3030,,34.3088,34.2960,,34.2980,34.3034,0.3166,,0.3313,0.3308,0.3175,,0.3352,0.3327,0.3318,13.767,14.6715,14.4687,13.807,15.7615,14.5530,14.5109,0.0311,,,, ,, , ,26.9549,,26.9496,,0.6779,84.4101,,,,1.8274E+03,,1.0000E-12,,6.3652,6.3633,0.8851,116.432,4.605,4.617,,,,,,,,,,,,
CalCOFI,2101RL,006,,2101_006u,16-Jan-2021 23:10:16,16-Jan-2021 15:10:16,32.68114,-117.86498,093.3 035.0,093.3,035.0,488.000,492.036,,6.4114,,6.4119,,6.4117,34.3029,,34.3087,34.2956,,34.2976,34.3032,0.3161,,0.3307,0.3303,0.3279,,0.3463,0.3437,0.3370,13.747,14.6506,14.4478,14.260,15.7393,15.0301,14.7390,0.0319,,,, ,, , ,26.9545,,26.9488,,0.6775,84.4192,,,,1.8302E+03,,1.0000E-12,,6.3671,6.3676,0.8851,116.454,4.598,4.769,,,,,,,,,,,,
CalCOFI,2101RL,006,,2101_006u,16-Jan-2021 23:10:17,16-Jan-2021 15:10:17,32.68114,-117.86498,093.3 035.0,093.3,035.0,487.000,491.027,,6.4121,,6.4134,,6.4128,34.3028,,34.3086,34.2955,,34.2975,34.3031,0.3166,,0.3313,0.3308,0.3274,,0.3457,0.3432,0.3370,13.767,14.6715,14.4687,14.238,15.7615,15.0069,14.7378,0.0327,,,, ,, , ,26.9544,,26.9484,,0.6780,84.4085,,,,1.8327E+03,,1.0000E-12,,6.3678,6.3691,0.8851,116.453,4.605,4.762,,,,,,,,,,,,
CalCOFI,2101RL,006,,2101_006u,16-Jan-2021 23:10:17,16-Jan-2021 15:10:17,32.68116,-117.86498,093.3 035.0,093.3,035.0,486.000,490.017,,6.4129,,6.4135,,6.4132,34.3027,,34.3085,34.2954,,34.2974,34.3030,0.3181,,0.3328,0.3324,0.3223,,0.3403,0.3378,0.3351,13.834,14.7416,14.5386,14.016,15.8360,14.7731,14.6559,0.0323,,,, ,, , ,26.9542,,26.9483,,0.6777,84.4142,,,,1.8351E+03,,1.0000E-12,,6.3688,6.3693,0.8851,116.462,4.627,4.688,,,,,,,,,,,,
CalCOFI,2101RL,006,,2101_006u,16-Jan-2021 23:10:18,16-Jan-2021 15:10:18,32.68116,-117.86498,093.3 035.0,093.3,035.0,485.000,489.008,,6.4136,,6.4147,,6.4142,34.3025,,34.3083,34.2952,,34.2972,34.3028,0.3194,,0.3342,0.3338,0.3223,,0.3403,0.3378,0.3358,13.889,14.7992,14.5960,14.016,15.8972,14.7731,14.6846,0.0325,,,, ,, , ,26.9539,,26.9481,,0.6785,84.3985,,,,1.8340E+03,,1.0000E-12,,6.3695,6.3706,0.8851,116.471,4.646,4.688,,,,,,,,,,,,
CalCOFI,2101RL,006,,2101_006u,16-Jan-2021 23:10:19,16-Jan-2021 15:10:19,32.68116,-117.86498,093.3 035.0,093.3,035.0,484.000,487.998,,6.4147,,6.4154,,6.4151,34.3024,,34.3082,34.2951,,34.2971,34.3027,0.3228,,0.3377,0.3373,0.3222,,0.3402,0.3377,0.3375,14.038,14.9552,14.7515,14.014,16.0629,14.7710,14.7613,0.0321,,,, ,, , ,26.9537,,26.9479,,0.6775,84.4194,,,,1.8293E+03,,1.0000E-12,,6.3708,6.3715,0.8851,116.475,4.696,4.688,,,,,,,,,,,,
CalCOFI,2101RL,006,,2101_006u,16-Jan-2021 23:10:20,16-Jan-2021 15:10:20,32.68116,-117.86497,093.3 035.0,093.3,035.0,483.000,486.989,,6.4143,,6.4153,,6.4148,34.3025,,34.3083,34.2950,,34.2970,34.3027,0.3203,,0.3351,0.3347,0.3281,,0.3465,0.3439,0.3393,13.929,14.8411,14.6377,14.268,15.9417,15.0385,14.8381,0.0330,,,, ,, , ,26.9538,,26.9478,,0.6778,84.4131,,,,1.8266E+03,,1.0000E-12,,6.3704,6.3714,0.8851,116.452,4.659,4.773,,,,,,,,,,,,
CalCOFI,2101RL,006,,2101_006u,16-Jan-2021 23:10:22,16-Jan-2021 15:10:22,32.68116,-117.86496,093.3 035.0,093.3,035.0,482.000,485.980,,6.4152,,6.4157,,6.4155,34.3022,,34.3080,34.2949,,34.2969,34.3025,0.3202,,0.3350,0.3346,0.3297,,0.3482,0.3456,0.3401,13.924,14.8358,14.6325,14.337,15.9361,15.1112,14.8719,0.0320,,,, ,, , ,26.9534,,26.9476,,0.6780,84.4083,,,,1.8278E+03,,1.0000E-12,,6.3714,6.3719,0.8851,116.475,4.658,4.796,,,,,,,,,,,,
CalCOFI,2101RL,006,,2101_006u,16-Jan-2021 23:10:23,16-Jan-2021 15:10:23,32.68116,-117.86496,093.3 035.0,093.3,035.0,481.000,484.970,,6.4171,,6.4162,,6.4167,34.3022,,34.3080,34.2950,,34.2970,34.3025,0.3226,,0.3375,0.3371,0.3287,,0.3471,0.3445,0.3408,14.030,14.9468,14.7431,14.294,16.0540,15.0659,14.9045,0.0326,,,, ,, , ,26.9532,,26.9477,,0.6775,84.4184,,,,1.8300E+03,,1.0000E-12,,6.3734,6.3725,0.8851,116.482,4.693,4.782,,,,,,,,,,,,
CalCOFI,2101RL,006,,2101_006u,16-Jan-2021 23:10:24,16-Jan-2021 15:10:24,32.68116,-117.86496,093.3 035.0,093.3,035.0,480.000,483.961,,6.4286,,6.4260,,6.4273,34.3014,,34.3072,34.2946,,34.2966,34.3019,0.3300,,0.3453,0.3448,0.3264,,0.3447,0.3421,0.3435,14.351,15.2828,15.0781,14.195,16.4109,14.9616,15.0199,0.0324,,,, ,, , ,26.9511,,26.9460,,0.6778,84.4123,,,,1.8365E+03,,1.0000E-12,,6.3850,6.3823,0.8851,116.683,4.802,4.749,,,,,,,,,,,,
CalCOFI,2101RL,006,,2101_006u,16-Jan-2021 23:10:25,16-Jan-2021 15:10:25,32.68116,-117.86496,093.3 035.0,093.3,035.0,479.000,482.951,,6.4422,,6.4355,,6.4389,34.3008,,34.3066,34.2940,,34.2960,34.3013,0.3316,,0.3470,0.3465,0.3279,,0.3463,0.3437,0.3451,14.422,15.3571,15.1522,14.261,16.4899,15.0311,15.0917,0.0321,,,, ,, , ,26.9488,,26.9443,,0.6777,84.4146,,,,1.8398E+03,,1.0000E-12,,6.3986,6.3919,0.8851,116.894,4.827,4.772,,,,,,,,,,,,
CalCOFI,2101RL,006,,2101_006u,16-Jan-2021 23:10:26,16-Jan-2021 15:10:26,32.68116,-117.86496,093.3 035.0,093.3,035.0,478.000,481.942,,6.4495,,6.4427,,6.4461,34.3005,,34.3063,34.2935,,34.2955,34.3009,0.3272,,0.3423,0.3419,0.3333,,0.3520,0.3494,0.3457,14.230,15.1562,14.9519,14.493,16.2764,15.2755,15.1137,0.0326,,,, ,, , ,26.9476,,26.9430,,0.6781,84.4075,,,,1.8374E+03,,1.0000E-12,,6.4059,6.3992,0.8851,117.004,4.764,4.851,,,,,,,,,,,,
CalCOFI,2101RL,006,,2101_006u,16-Jan-2021 23:10:27,16-Jan-2021 15:10:27,32.68116,-117.86495,093.3 035.0,093.3,035.0,477.000,480.932,,6.4529,,6.4529,,6.4529,34.3002,,34.3060,34.2930,,34.2950,34.3005,0.3309,,0.3462,0.3457,0.3364,,0.3553,0.3526,0.3492,14.391,15.3247,15.1199,14.632,16.4554,15.4219,15.2709,0.0319,,,, ,, , ,26.9469,,26.9412,,0.6779,84.4103,,,,1.8326E+03,,1.0000E-12,,6.4094,6.4095,0.8851,117.053,4.818,4.898,,,,,,,,,,,,
CalCOFI,2101RL,006,,2101_006u,16-Jan-2021 23:10:28,16-Jan-2021 15:10:28,32.68116,-117.86494,093.3 035.0,093.3,035.0,476.000,479.923,,6.4582,,6.4585,,6.4584,34.2995,,34.3053,34.2923,,34.2943,34.2998,0.3357,,0.3512,0.3507,0.3350,,0.3538,0.3511,0.3509,14.601,15.5445,15.3390,14.570,16.6890,15.3566,15.3478,0.0317,,,, ,, , ,26.9457,,26.9399,,0.6786,84.3957,,,,1.8283E+03,,1.0000E-12,,6.4148,6.4151,0.8851,117.164,4.889,4.878,,,,,,,,,,,,
CalCOFI,2101RL,006,,2101_006u,16-Jan-2021 23:10:29,16-Jan-2021 15:10:29,32.68116,-117.86494,093.3 035.0,093.3,035.0,475.000,478.914,,6.4627,,6.4611,,6.4619,34.2989,,34.3047,34.2919,,34.2939,34.2993,0.3365,,0.3521,0.3516,0.3405,,0.3596,0.3569,0.3543,14.633,15.5780,15.3724,14.809,16.7245,15.6083,15.4904,0.0314,,,, ,, , ,26.9446,,26.9393,,0.6783,84.4031,,,,1.8243E+03,,1.0000E-12,,6.4194,6.4178,0.8851,117.258,4.900,4.958,,,,,,,,,,,,
CalCOFI,2101RL,006,,2101_006u,16-Jan-2021 23:10:29,16-Jan-2021 15:10:29,32.68116,-117.86494,093.3 035.0,093.3,035.0,474.000,477.904,,6.4703,,6.4713,,6.4708,34.2980,,34.3038,34.2906,,34.2926,34.2982,0.3398,,0.3555,0.3550,0.3507,,0.3705,0.3677,0.3614,14.777,15.7288,15.5227,15.249,16.8847,16.0717,15.7972,0.0317,,,, ,, , ,26.9429,,26.9369,,0.6780,84.4094,,,,1.8218E+03,,1.0000E-12,,6.4271,6.4280,0.8851,117.409,4.949,5.107,,,,,,,,,,,,
CalCOFI,2101RL,006,,2101_006u,16-Jan-2021 23:10:30,16-Jan-2021 15:10:30,32.68116,-117.86494,093.3 035.0,093.3,035.0,473.000,476.895,,6.4752,,6.4767,,6.4760,34.2972,,34.3030,34.2897,,34.2917,34.2974,0.3371,,0.3527,0.3522,0.3417,,0.3609,0.3582,0.3552,14.662,15.6084,15.4027,14.859,16.7568,15.6610,15.5319,0.0314,,,, ,, , ,26.9415,,26.9355,,0.6783,84.4027,,,,1.8270E+03,,1.0000E-12,,6.4320,6.4336,0.8851,117.525,4.911,4.977,,,,,,,,,,,,
CalCOFI,2101RL,006,,2101_006u,16-Jan-2021 23:10:31,16-Jan-2021 15:10:31,32.68116,-117.86494,093.3 035.0,093.3,035.0,472.000,475.886,,6.4786,,6.4790,,6.4788,34.2966,,34.3024,34.2895,,34.2915,34.2970,0.3422,,0.3580,0.3575,0.3386,,0.3576,0.3549,0.3562,14.883,15.8397,15.6333,14.725,17.0025,15.5198,15.5766,0.0323,,,, ,, , ,26.9407,,26.9349,,0.6786,84.3958,,,,1.8289E+03,,1.0000E-12,,6.4355,6.4359,0.8851,117.598,4.986,4.932,,,,,,,,,,,,
CalCOFI,2101RL,006,,2101_006u,16-Jan-2021 23:10:32,16-Jan-2021 15:10:32,32.68116,-117.86494,093.3 035.0,093.3,035.0,471.000,474.876,,6.4803,,6.4802,,6.4803,34.2964,,34.3022,34.2892,,34.2912,34.2967,0.3389,,0.3546,0.3541,0.3492,,0.3689,0.3661,0.3601,14.739,15.6890,15.4830,15.186,16.8424,16.0054,15.7442,0.0324,,,, ,, , ,26.9403,,26.9346,,0.6785,84.3973,,,,1.8307E+03,,1.0000E-12,,6.4373,6.4373,0.8851,117.619,4.938,5.087,,,,,,,,,,,,
CalCOFI,2101RL,006,,2101_006u,16-Jan-2021 23:10:34,16-Jan-2021 15:10:34,32.68116,-117.86494,093.3 035.0,093.3,035.0,470.000,473.867,,6.4807,,6.4742,,6.4775,34.2964,,34.3022,34.2899,,34.2919,34.2971,0.3454,,0.3614,0.3609,0.3415,,0.3607,0.3580,0.3595,15.019,15.9821,15.7752,14.849,17.1538,15.6504,15.7128,0.0318,,,, ,, , ,26.9402,,26.9359,,0.6782,84.4041,,,,1.8316E+03,,1.0000E-12,,6.4378,6.4314,0.8851,117.613,5.031,4.974,,,,,,,,,,,,
CalCOFI,2101RL,006,,2101_006u,16-Jan-2021 23:10:35,16-Jan-2021 15:10:35,32.68116,-117.86494,093.3 035.0,093.3,035.0,469.000,472.857,,6.4877,,6.4828,,6.4853,34.2958,,34.3016,34.2889,,34.2909,34.2963,0.3496,,0.3658,0.3652,0.3465,,0.3660,0.3633,0.3643,15.205,16.1768,15.9694,15.069,17.3606,15.8821,15.9258,0.0325,,,, ,, , ,26.9388,,26.9340,,0.6786,84.3955,,,,1.8344E+03,,1.0000E-12,,6.4449,6.4400,0.8851,117.742,5.095,5.048,,,,,,,,,,,,
CalCOFI,2101RL,006,,2101_006u,16-Jan-2021 23:10:36,16-Jan-2021 15:10:36,32.68116,-117.86494,093.3 035.0,093.3,035.0,468.000,471.848,,6.5098,,6.5048,,6.5073,34.2942,,34.3000,34.2877,,34.2897,34.2949,0.3554,,0.3719,0.3713,0.3576,,0.3778,0.3749,0.3731,15.455,16.4385,16.2303,15.550,17.6386,16.3887,16.3095,0.0312,,,, ,, , ,26.9346,,26.9301,,0.6786,84.3957,,,,1.8301E+03,,1.0000E-12,,6.4670,6.4620,0.8851,118.140,5.181,5.212,,,,,,,,,,,,
CalCOFI,2101RL,006,,2101_006u,16-Jan-2021 23:10:37,16-Jan-2021 15:10:37,32.68116,-117.86494,093.3 035.0,093.3,035.0,467.000,470.839,,6.5211,,6.5229,,6.5220,34.2938,,34.2996,34.2862,,34.2882,34.2939,0.3559,,0.3724,0.3718,0.3529,,0.3728,0.3700,0.3709,15.479,16.4636,16.2553,15.348,17.6653,16.1760,16.2157,0.0325,,,, ,, , ,26.9328,,26.9266,,0.6785,84.3969,,,,1.8283E+03,,1.0000E-12,,6.4784,6.4802,0.8851,118.310,5.190,5.146,,,,,,,,,,,,